Weather History for Seattle Boeing, WA

Change the Weather History Date:

Sunday, November 11, 2012

  Actual Average Record
Temperature  
Mean Temperature 40 °F -  
Max Temperature 48 °F 52 °F 65 °F (1990)
Min Temperature 32 °F 41 °F 15 °F (1955)
Degree Days  
Heating Degree Days 25    
Moisture  
Dew Point 34 °F    
Average Humidity 77    
Maximum Humidity 93    
Minimum Humidity 58    
Precipitation  
Precipitation 0.55 in - - ()
Sea Level Pressure  
Sea Level Pressure 30.18 in    
Wind  
Wind Speed 4 mph (SE)    
Max Wind Speed 9 mph    
Max Gust Speed -    
Visibility 8 miles    
Events Rain    
Averages and records for this station are not official NWS values.
T = Trace of Precipitation, MM = Missing Value Source: NWS Daily Summary

Daily Weather History Graph

Daily Weather History Graph

Search for Another Location

Airport:

Trip Planner

Search our weather history database for the weather conditions in past years. The results will help you decide how hot, cold, wet, or windy it might be!

Date:

Astronomy

Nov. 11, 2012 Rise Set
Actual Time 7:09 AM PST 4:36 PM PST
Civil Twilight 6:35 AM PST 5:10 PM PST
Nautical Twilight 5:58 AM PST 5:47 PM PST
Astronomical Twilight 5:22 AM PST 6:23 PM PST
Moon 4:21 AM PST (11/11) 3:10 PM PST (11/11)
Length of Visible Light 10h 34m
Length of Day
9h 27m
Waning Crescent, 6% of the Moon is Illuminated
Nov 11
Waning Crescent
Nov 13
New
Nov 20
First Quarter
Nov 28
Full
Dec 6
Last Quarter

Hourly Weather History & Observations

Time (PST) Temp. Windchill Dew Point Humidity Pressure Visibility Wind Dir Wind Speed Gust Speed Precip Events Conditions
12:53 AM 35.1 °F 31.0 °F 28.0 °F 76% 30.24 in 10.0 mi ESE 4.6 mph - N/A   Clear
1:53 AM 33.1 °F 27.7 °F 28.0 °F 82% 30.25 in 10.0 mi SSE 5.8 mph - N/A   Clear
2:53 AM 32.0 °F 26.4 °F 28.0 °F 85% 30.24 in 10.0 mi SSE 5.8 mph - N/A   Partly Cloudy
3:53 AM 34.0 °F 29.8 °F 28.0 °F 79% 30.23 in 10.0 mi SSE 4.6 mph - N/A   Mostly Cloudy
4:53 AM 33.1 °F 28.7 °F 28.0 °F 82% 30.23 in 10.0 mi SE 4.6 mph - N/A   Partly Cloudy
5:53 AM 35.1 °F 32.2 °F 28.0 °F 76% 30.22 in 10.0 mi SSE 3.5 mph - N/A   Mostly Cloudy
6:53 AM 35.6 °F 32.8 °F 28.4 °F 75% 30.22 in 10.0 mi SE 3.5 mph - N/A   Overcast
7:53 AM 37.4 °F - 28.4 °F 70% 30.23 in 10.0 mi Calm Calm - N/A   Overcast
8:53 AM 37.9 °F - 28.9 °F 70% 30.23 in 10.0 mi Calm Calm - N/A   Overcast
9:53 AM 39.2 °F 37.0 °F 30.2 °F 70% 30.23 in 10.0 mi SE 3.5 mph - N/A   Overcast
10:53 AM 41.0 °F - 32.0 °F 70% 30.23 in 10.0 mi Calm Calm - N/A   Overcast
11:53 AM 44.1 °F - 33.1 °F 65% 30.21 in 10.0 mi Calm Calm - N/A   Overcast
12:53 PM 46.9 °F - 33.1 °F 59% 30.20 in 10.0 mi SSE 3.5 mph - N/A   Overcast
1:53 PM 48.0 °F - 34.0 °F 58% 30.17 in 10.0 mi SSE 5.8 mph - 0.00 in   Overcast
2:53 PM 48.0 °F - 36.0 °F 63% 30.16 in 10.0 mi SSE 5.8 mph - 0.00 in   Overcast
3:53 PM 46.9 °F - 39.0 °F 74% 30.15 in 6.0 mi ESE 4.6 mph - 0.02 in Rain Light Rain
4:00 PM 46.4 °F 43.5 °F 39.2 °F 76% 30.15 in 6.0 mi ESE 5.8 mph - 0.01 in Rain Light Rain
4:53 PM 45.0 °F 43.5 °F 41.0 °F 86% 30.14 in 5.0 mi ESE 3.5 mph - 0.07 in Rain Light Rain
5:53 PM 45.0 °F 40.1 °F 41.0 °F 86% 30.12 in 7.0 mi SE 9.2 mph - 0.12 in Rain Light Rain
6:53 PM 44.1 °F 40.1 °F 39.9 °F 85% 30.10 in 7.0 mi SE 6.9 mph - 0.08 in Rain Light Rain
7:53 PM 44.1 °F 42.5 °F 41.0 °F 89% 30.09 in 7.0 mi SE 3.5 mph - 0.08 in Rain Light Rain
8:53 PM 44.1 °F - 42.1 °F 93% 30.11 in 7.0 mi Calm Calm - 0.03 in Rain Light Rain
9:53 PM 44.1 °F 42.5 °F 41.0 °F 89% 30.10 in 5.0 mi ESE 3.5 mph - 0.03 in Rain Light Rain
10:53 PM 44.1 °F 42.5 °F 41.0 °F 89% 30.08 in 5.0 mi SE 3.5 mph - 0.09 in Rain Rain
11:53 PM 44.1 °F 41.5 °F 41.0 °F 89% 30.10 in 4.0 mi ESE 4.6 mph - 0.03 in Rain Light Rain